Location: *
(49.3500°N, 12.6000°E)
Time: 11:58:51
(UTC+00:00)

Cosmos 2100 Rocket - Pass Details

Date: 18 October 2019
Orbit: 955 x 1002 km, 82.9° (Epoch: 11 November)

Event Time Altitude Azimuth Distance (km) Brightness Sun altitude
Rises 18:12:14 0° 351° (N) 3,677 7.2 -19.9°
Reaches altitude 10° 18:14:47 10° 354° (N) 2,720 6.5 -20.3°
Maximum altitude 18:21:00 70° 78° (ENE) 1,019 3.8 -21.3°
Enters shadow 18:25:38 18° 160° (SSE) 2,140 5.5 -22.1°
